Waarnemingen

Advertentie
Mijn weer
Görlitz, Duitsland (10499): temperatuur & dauwpunt: 16.01.2018 21:00:00 - 22.01.2018 21:00:00 (CET)Görlitz, Duitsland (10499): temperatuur 5cm & temperatuur -5cm: 16.01.2018 21:00:00 - 22.01.2018 21:00:00 (CET)Görlitz, Duitsland (10499): temperatuur -20cm & temperatuur -100cm: 16.01.2018 21:00:00 - 22.01.2018 21:00:00 (CET)Görlitz, Duitsland (10499): windsnelheid & windstoten: 16.01.2018 21:00:00 - 22.01.2018 21:00:00 (CET)Görlitz, Duitsland (10499): windrichting: 16.01.2018 21:00:00 - 22.01.2018 21:00:00 (CET)Görlitz, Duitsland (10499): luchtdruk: 16.01.2018 21:00:00 - 22.01.2018 21:00:00 (CET)Görlitz, Duitsland (10499): zicht: 16.01.2018 21:00:00 - 22.01.2018 21:00:00 (CET)Görlitz, Duitsland (10499): Zonneschijnduur: 16.01.2018 21:00:00 - 22.01.2018 21:00:00 (CET)Görlitz, Duitsland (10499): neerslag: 16.01.2018 21:00:00 - 22.01.2018 21:00:00 (CET)
Datum & Tijd tt [°C] td [°C] tt 5cm [°C] tt -5cm [°C] tt -20cm [°C] tt -100cm [°C] ff [km/u] ff [kn] fx [km/u] fx [kn] dd ppp [hPa] vv [km] sd [min] rr [mm]
22.01.2018 21:00:00 -0,5 -4,0 -0,7 0,4 1,2 4,3 21 12 36 19 Z 1012,5 8 0 0,0
22.01.2018 20:00:00 -0,5 -4,6 -0,6 0,4 1,2 4,3 23 13 35 19 Z 1012,0 8 0 0,0
22.01.2018 19:00:00 -0,1 -5,5 -0,4 0,4 1,2 4,3 17 9 29 16 Z 1011,7 17 0 0,0
22.01.2018 18:00:00 0,0 -6,0 -0,3 0,4 1,2 4,3 14 8 30 16 Z 1011,7 17 0 0,0
22.01.2018 17:00:00 0,2 -6,4 -0,2 0,4 1,2 4,3 15 8 21 11 Z 1011,5 27 0 0,0
22.01.2018 16:00:00 1,0 -6,3 0,4 0,4 1,2 4,3 10 5 20 11 ZZO 1011,3 30 0 0,0
22.01.2018 15:00:00 1,0 -5,7 0,9 0,4 1,2 4,3 13 7 25 13 ZO 1011,6 35 10 0,0
22.01.2018 14:00:00 1,2 -6,8 1,6 0,4 1,2 4,3 14 8 27 15 ZO 1011,8 40 4 0,0
22.01.2018 13:00:00 0,7 -6,1 1,3 0,4 1,2 4,4 19 10 33 18 ZZO 1012,8 35 42 0,0
22.01.2018 12:00:00 0,0 -5,3 0,9 0,4 1,2 4,4 15 8 28 15 Z 1013,8 27 22 0,0
22.01.2018 11:00:00 -0,3 -5,2 0,6 0,4 1,2 4,4 16 9 32 18 Z 1014,8 24 10 0,0
22.01.2018 10:00:00 -1,1 -4,9 -0,9 0,4 1,3 4,4 22 12 31 17 Z 1014,9 22 1 0,0
22.01.2018 09:00:00 -1,5 -5,2 -2,0 0,4 1,3 4,4 17 9 25 14 Z 1015,2 22 0 0,0
22.01.2018 08:00:00 -2,3 -5,1 -3,3 0,4 1,3 4,4 14 8 20 11 Z 1015,3 17 0 0,0
22.01.2018 07:00:00 -3,8 -5,8 -5,0 0,5 1,3 4,4 9 5 13 7 ZO 1015,9 10 0 0,0
22.01.2018 06:00:00 -3,1 -5,1 -3,8 0,5 1,3 4,4 10 5 15 8 Z 1016,7 13 0 0,0
22.01.2018 05:00:00 -3,6 -4,7 -4,1 0,5 1,3 4,4 11 6 14 7 ZZO 1017,3 12 0 0,0
22.01.2018 04:00:00 -3,7 -4,1 -5,1 0,5 1,3 4,4 9 5 10 6 ZO 1017,6 12 0 0,0
22.01.2018 03:00:00 -3,2 -3,5 -4,1 0,5 1,3 4,4 7 4 10 5 ZO 1018,4 11 0 0,0
22.01.2018 02:00:00 -3,1 -3,6 -4,5 0,5 1,3 4,4 8 5 11 6 ZZO 1019,0 12 0 0,0
22.01.2018 01:00:00 -2,6 -3,3 -3,8 0,6 1,3 4,4 7 4 8 5 OZO 1019,2 14 0 0,0
22.01.2018 00:00:00 -1,3 -2,7 -2,4 0,6 1,3 4,4 8 4 10 5 O 1019,6 13 0 0,0
21.01.2018 23:00:00 -1,0 -2,2 -1,4 0,6 1,3 4,4 6 3 16 9 WZW 1019,8 11 0 0,0
21.01.2018 22:00:00 -0,8 -2,6 -1,1 0,6 1,3 4,4 8 4 17 9 W 1019,9 11 0 0,0
21.01.2018 21:00:00 -1,1 -2,4 -1,6 0,6 1,3 4,4 10 5 17 9 W 1019,7 9 0 0,0
21.01.2018 20:00:00 -0,9 -2,1 -1,0 0,6 1,3 4,4 9 5 21 11 W 1019,1 6 0 0,0
21.01.2018 19:00:00 -0,9 -2,1 -1,0 0,6 1,3 4,4 12 6 21 11 W 1019,0 7 0 0,0
21.01.2018 18:00:00 -0,9 -1,8 -0,9 0,6 1,3 4,4 12 6 20 11 W 1018,4 5 0 0,0
21.01.2018 17:00:00 -0,9 -1,6 -0,8 0,6 1,3 4,4 8 4 22 12 N 1017,7 3,5 0 0,0
21.01.2018 16:00:00 -1,0 -1,7 -0,9 0,6 1,3 4,4 13 7 19 10 NNW 1016,9 3,0 0 0,0
21.01.2018 15:00:00 -1,1 -1,7 -0,7 0,6 1,3 4,4 11 6 18 10 N 1015,5 3,5 0 0,0
21.01.2018 14:00:00 -1,0 -1,6 -0,5 0,6 1,3 4,4 8 4 18 10 NNW 1014,4 3,5 0 0,0
21.01.2018 13:00:00 -1,3 -1,8 -0,7 0,6 1,3 4,4 13 7 19 10 N 1013,7 3,5 0 0,0
21.01.2018 12:00:00 -1,2 -1,8 -0,6 0,6 1,3 4,4 9 5 14 7 N 1012,5 3,5 0 0,0
21.01.2018 11:00:00 -1,9 -2,2 -1,1 0,6 1,3 4,4 6 3 14 8 NNO 1011,8 1,2 0 0,0
21.01.2018 10:00:00 -2,2 -2,6 -1,7 0,6 1,3 4,4 10 6 12 6 N 1010,5 3,5 0 0,0
21.01.2018 09:00:00 -2,5 -2,8 -2,4 0,6 1,3 4,4 6 3 16 9 NNO 1009,3 4,3 0 0,0
21.01.2018 08:00:00 -2,3 -2,8 -2,5 0,6 1,3 4,4 10 5 16 9 NO 1008,2 8 0 0,0
21.01.2018 07:00:00 -2,3 -3,4 -2,8 0,6 1,3 4,4 7 4 10 5 NO 1006,8 12 0 0,0
21.01.2018 06:00:00 -2,5 -3,3 -3,4 0,6 1,3 4,4 5 3 10 5 NNO 1005,9 12 0 0,0
21.01.2018 05:00:00 -1,9 -3,4 -2,4 0,6 1,3 4,5 6 3 8 5 NO 1005,2 12 0 0,0
21.01.2018 04:00:00 -1,6 -3,2 -2,1 0,6 1,3 4,5 7 4 9 5 NO 1004,7 20 0 0,0
21.01.2018 03:00:00 -1,9 -3,2 -2,4 0,6 1,3 4,5 3 2 7 4 NNO 1004,2 18 0 0,0
21.01.2018 02:00:00 -1,4 -3,2 -2,1 0,6 1,3 4,5 3 2 6 3 W 1003,7 22 0 0,0
21.01.2018 01:00:00 -2,2 -3,0 -3,5 0,6 1,3 4,5 5 3 10 6 ZZO 1003,9 13 0 0,0
21.01.2018 00:00:00 -1,9 -2,8 -3,2 0,5 1,3 4,5 9 5 11 6 O 1004,1 12 0 0,0
20.01.2018 23:00:00 -1,8 -2,7 -3,1 0,5 1,3 4,5 5 3 16 9 NNO 1004,2 15 0 0,0
20.01.2018 22:00:00 -1,4 -2,6 -3,5 0,5 1,3 4,5 9 5 13 7 Z 1004,2 12 0 0,0
20.01.2018 21:00:00 -1,2 -2,3 -3,2 0,5 1,3 4,5 6 4 12 6 ZO 1004,2 12 0 0,0
20.01.2018 20:00:00 -0,7 -2,1 -1,8 0,5 1,3 4,5 8 4 10 6 ZO 1004,8 12 0 0,0
20.01.2018 19:00:00 -0,4 -1,8 -2,4 0,5 1,3 4,5 4 2 6 4 ZZO 1005,3 14 0 0,0
20.01.2018 18:00:00 -0,1 -1,3 -1,7 0,5 1,3 4,5 7 4 15 8 Z 1006,0 18 0 0,0
20.01.2018 17:00:00 0,4 -1,2 -0,7 0,5 1,3 4,5 12 7 20 11 Z 1006,3 27 0 0,0
20.01.2018 16:00:00 1,3 -0,4 0,9 0,5 1,3 4,5 11 6 29 16 ZW 1006,6 20 1 0,0
20.01.2018 15:00:00 1,5 -1,1 1,5 0,5 1,3 4,5 16 9 27 15 ZZW 1007,1 20 1 0,0
20.01.2018 14:00:00 2,1 -1,4 2,1 0,5 1,3 4,5 17 9 24 13 ZZW 1007,3 15 5 0,0
20.01.2018 13:00:00 2,1 -1,3 2,0 0,5 1,3 4,5 13 7 21 11 ZW 1008,2 23 2 0,1
20.01.2018 12:00:00 1,0 -1,5 0,9 0,5 1,3 4,5 15 8 21 11 ZW 1009,1 24 0 0,0
20.01.2018 11:00:00 0,5 -1,2 0,4 0,5 1,3 4,5 14 7 29 15 ZW 1009,7 17 0 0,1
20.01.2018 10:00:00 0,8 -2,0 0,6 0,5 1,2 4,5 21 11 29 16 ZZW 1009,7 27 0 0,0
20.01.2018 09:00:00 0,5 -1,8 0,0 0,5 1,2 4,5 19 10 28 15 ZZW 1009,6 23 0 0,0
20.01.2018 08:00:00 -0,2 -0,8 -0,2 0,5 1,2 4,5 16 9 29 16 ZW 1009,8 4,5 0 0,0
20.01.2018 07:00:00 0,2 -1,7 -0,2 0,5 1,2 4,5 16 9 27 14 ZZW 1009,7 9 0 0,0
20.01.2018 06:00:00 0,0 -1,5 -0,2 0,5 1,2 4,5 19 10 25 13 ZW 1010,1 13 0 0,0
20.01.2018 05:00:00 -0,4 -2,2 -1,0 0,5 1,2 4,6 13 7 23 13 ZZW 1010,3 15 0 0,0
20.01.2018 04:00:00 0,7 -2,2 0,1 0,5 1,2 4,6 18 10 25 14 ZW 1010,3 15 0 0,0
20.01.2018 03:00:00 0,5 -1,9 0,2 0,5 1,2 4,6 18 10 27 15 ZZW 1010,6 15 0 0,0
20.01.2018 02:00:00 0,6 -1,8 -0,1 0,5 1,2 4,6 18 10 27 14 ZZW 1010,9 15 0 0,0
20.01.2018 01:00:00 0,4 -1,6 -0,4 0,4 1,2 4,6 19 10 25 14 ZZW 1010,7 17 0 0,0
20.01.2018 00:00:00 0,9 -1,0 0,3 0,4 1,2 4,6 13 7 17 9 ZW 1010,8 17 0 0,0
19.01.2018 23:00:00 0,9 -0,7 0,4 0,4 1,2 4,6 9 5 17 9 WZW 1010,6 15 0 0,0
19.01.2018 22:00:00 0,9 -0,9 0,5 0,4 1,2 4,6 14 8 22 12 ZW 1010,7 17 0 0,0
19.01.2018 21:00:00 0,8 -1,2 0,2 0,4 1,2 4,6 15 8 25 14 ZW 1010,6 22 0 0,0
19.01.2018 20:00:00 1,1 -1,2 0,4 0,4 1,2 4,6 14 8 21 11 ZW 1010,2 17 0 0,0
19.01.2018 19:00:00 1,4 -1,0 0,6 0,4 1,2 4,6 11 6 18 10 ZW 1009,9 17 0 0,0
19.01.2018 18:00:00 1,4 -1,2 0,4 0,4 1,2 4,6 10 5 12 7 ZZW 1009,4 35 0 0,0
19.01.2018 17:00:00 1,1 -1,3 -0,5 0,4 1,2 4,6 10 5 18 10 WZW 1008,8 40 0 0,0
19.01.2018 16:00:00 2,2 -0,8 1,0 0,4 1,2 4,6 10 5 19 10 WZW 1008,4 40 2 0,0
19.01.2018 15:00:00 2,5 -0,6 1,9 0,4 1,2 4,6 13 7 22 12 WZW 1008,0 30 15 0,0
19.01.2018 14:00:00 2,0 -0,4 1,4 0,4 1,2 4,6 12 7 22 12 WZW 1007,7 35 8 0,0
19.01.2018 13:00:00 1,8 0,4 1,6 0,4 1,2 4,6 12 6 18 10 WZW 1007,7 23 0 0,0
19.01.2018 12:00:00 1,3 0,0 1,1 0,4 1,2 4,6 11 6 19 11 WZW 1007,5 22 0 0,0
19.01.2018 11:00:00 1,2 0,2 1,0 0,4 1,2 4,6 9 5 22 12 W 1007,4 20 0 0,0
19.01.2018 10:00:00 0,9 0,1 0,5 0,4 1,2 4,6 10 5 17 9 WNW 1006,5 8 0 0,4
19.01.2018 09:00:00 1,1 -0,1 0,6 0,4 1,2 4,7 10 5 20 11 W 1005,2 25 0 0,0
19.01.2018 08:00:00 1,1 -0,1 0,4 0,4 1,2 4,7 10 5 19 11 W 1004,3 22 0 0,0
19.01.2018 07:00:00 1,1 -0,3 0,4 0,4 1,2 4,7 9 5 32 17 WZW 1003,3 22 0 0,0
19.01.2018 06:00:00 1,2 -0,4 0,1 0,3 1,2 4,7 18 10 44 24 WNW 1002,4 18 0 0,0
19.01.2018 05:00:00 1,4 -0,1 0,5 0,3 1,2 4,7 23 12 39 21 W 1002,0 12 0 0,0
19.01.2018 04:00:00 1,7 -0,3 0,7 0,3 1,2 4,7 24 13 44 24 W 1001,4 30 0 0,0
19.01.2018 03:00:00 0,9 0,4 0,4 0,3 1,2 4,7 18 10 45 25 W 1001,2 12 0 0,3
19.01.2018 02:00:00 1,6 -0,1 0,8 0,3 1,2 4,7 26 14 45 25 W 1000,6 30 0 0,0
19.01.2018 01:00:00 1,9 -1,2 0,9 0,3 1,2 4,7 29 15 56 30 W 999,6 40 0 0,0
19.01.2018 00:00:00 2,2 -1,5 1,4 0,3 1,2 4,7 26 14 68 37 WNW 998,6 45 0 0,0
18.01.2018 23:00:00 2,4 -1,8 1,6 0,3 1,2 4,7 39 21 74 40 W 997,1 45 0 0,0
18.01.2018 22:00:00 2,0 -1,1 1,3 0,3 1,2 4,7 29 16 64 35 WNW 995,4 45 0 0,0
18.01.2018 21:00:00 3,4 -1,8 2,3 0,3 1,2 4,7 48 26 97 53 W 993,4 45 0 0,0
18.01.2018 20:00:00 4,3 -2,0 2,7 0,3 1,2 4,7 54 29 96 52 W 991,4 45 0 0,0
18.01.2018 19:00:00 4,9 -2,0 3,0 0,3 1,2 4,7 63 34 101 55 W 989,6 45 0 0,0
18.01.2018 18:00:00 5,4 -1,9 3,3 0,3 1,2 4,7 54 29 109 59 W 988,0 46 0 0,0
18.01.2018 17:00:00 3,5 0,6 2,4 0,3 1,2 4,8 35 19 71 38 ZW 987,8 27 0 1,1
18.01.2018 16:00:00 4,1 0,7 2,7 0,3 1,2 4,8 46 25 87 47 ZZW 986,9 30 0 0,1
18.01.2018 15:00:00 2,6 0,6 1,4 0,3 1,2 4,7 49 26 74 40 ZZW 988,6 15 1 0,0
18.01.2018 14:00:00 2,0 0,4 1,3 0,3 1,2 4,8 48 26 75 41 Z 990,1 7 2 0,3
18.01.2018 13:00:00 1,3 0,5 0,7 0,3 1,2 4,8 49 27 77 41 Z 992,2 5 0 0,5
18.01.2018 12:00:00 0,7 0,0 0,2 0,3 1,2 4,8 34 19 52 28 Z 995,4 3,5 0 0,1
18.01.2018 11:00:00 1,2 -1,3 0,9 0,3 1,2 4,8 34 19 49 26 Z 998,6 14 10 0,0
18.01.2018 10:00:00 0,3 -2,4 -0,3 0,3 1,2 4,8 30 16 45 24 Z 1001,0 27 0 0,0
18.01.2018 09:00:00 0,3 -2,8 -0,3 0,3 1,2 4,8 30 16 41 22 Z 1002,7 27 8 0,0
18.01.2018 08:00:00 0,2 -3,1 -1,3 0,3 1,2 4,8 18 10 29 16 Z 1003,9 27 0 0,0
18.01.2018 07:00:00 0,1 -2,8 -1,3 0,3 1,2 4,8 21 12 30 16 ZZW 1004,8 25 0 0,0
18.01.2018 06:00:00 1,1 -2,3 -1,0 0,2 1,2 4,8 21 11 45 24 WZW 1005,0 23 0 0,0
18.01.2018 05:00:00 1,8 -1,6 0,5 0,2 1,2 4,8 27 14 49 26 W 1005,1 15 0 0,0
18.01.2018 04:00:00 0,7 -0,3 -0,2 0,2 1,2 4,8 20 11 39 21 W 1005,8 25 0 0,2
18.01.2018 03:00:00 0,8 -1,3 -0,9 0,2 1,2 4,8 23 13 49 26 W 1005,8 25 0 0,0
18.01.2018 02:00:00 0,5 -0,3 0,0 0,2 1,2 4,8 21 12 42 23 W 1005,4 12 0 0,2
18.01.2018 01:00:00 0,3 -0,4 0,0 0,2 1,2 4,8 23 12 43 23 W 1005,2 3,0 0 0,3
18.01.2018 00:00:00 0,8 -1,7 0,0 0,2 1,2 4,8 27 14 47 25 W 1004,2 20 0 0,0
17.01.2018 23:00:00 0,6 -0,8 0,1 0,2 1,2 4,9 26 14 46 25 W 1003,5 15 0 0,0
17.01.2018 22:00:00 0,6 -1,2 0,0 0,2 1,2 4,9 19 10 29 15 W 1002,6 20 0 0,1
17.01.2018 21:00:00 0,1 -1,3 -0,2 0,2 1,2 4,9 19 10 36 20 WZW 1001,9 2,0 0 0,0
17.01.2018 20:00:00 1,1 -2,6 0,0 0,2 1,2 4,9 19 10 40 21 W 1001,3 29 0 0,0
17.01.2018 19:00:00 1,0 -2,3 -0,1 0,2 1,2 4,9 22 12 43 23 W 1001,0 14 0 0,0
17.01.2018 18:00:00 1,2 -1,7 0,3 0,2 1,2 4,9 26 14 41 22 W 1000,4 11 0 0,0
17.01.2018 17:00:00 1,2 -1,8 0,0 0,2 1,2 4,9 23 12 40 22 W 999,3 27 0 0,0
17.01.2018 16:00:00 1,4 -1,7 0,0 0,2 1,2 4,9 22 12 43 23 W 998,2 22 0 0,1
17.01.2018 15:00:00 1,1 -1,0 0,4 0,2 1,2 4,9 21 11 42 23 W 997,5 6 0 0,0
17.01.2018 14:00:00 1,1 -1,4 0,6 0,2 1,2 4,9 19 10 45 24 W 996,2 25 0 0,0
17.01.2018 13:00:00 0,7 -0,6 0,8 0,2 1,2 4,9 30 16 52 28 W 995,4 30 0 0,6
17.01.2018 12:00:00 0,3 -0,3 0,2 0,2 1,2 5,0 21 11 29 16 ZW 994,8 1,2 0 0,2
17.01.2018 11:00:00 0,7 -1,2 0,6 0,2 1,2 5,0 18 10 33 18 ZZW 994,2 7 2 0,0
17.01.2018 10:00:00 0,2 -1,5 0,1 0,2 1,2 5,0 21 11 35 19 ZZW 994,4 7 0 0,0
17.01.2018 09:00:00 -0,2 -2,5 -0,7 0,2 1,2 5,0 16 9 27 14 ZZW 993,8 25 0 0,0
17.01.2018 08:00:00 -0,9 -2,9 -1,8 0,1 1,2 5,0 18 10 23 12 ZZW 993,8 17 0 0,0
17.01.2018 07:00:00 -1,3 -3,6 -2,6 0,1 1,2 5,0 16 9 24 13 ZZW 993,7 17 0 0,0
17.01.2018 06:00:00 -1,9 -3,5 -4,3 0,1 1,2 5,0 10 6 16 9 Z 993,5 25 0 0,0
17.01.2018 05:00:00 -0,7 -3,0 -2,9 0,1 1,2 5,0 11 6 25 14 WZW 993,7 25 0 0,0
17.01.2018 04:00:00 0,7 -2,1 -0,9 0,1 1,2 5,0 17 9 24 13 WZW 993,5 25 0 0,0
17.01.2018 03:00:00 -0,1 -2,6 -1,9 0,1 1,2 5,0 15 8 25 13 ZW 994,0 25 0 0,0
17.01.2018 02:00:00 1,1 -1,9 -0,1 0,1 1,2 5,1 18 10 27 15 WZW 994,0 46 0 0,0
17.01.2018 01:00:00 1,2 -1,8 0,2 0,1 1,2 5,1 19 10 29 16 WZW 994,1 46 0 0,0
17.01.2018 00:00:00 1,0 -1,9 -0,7 0,1 1,2 5,1 16 8 26 14 W 993,8 46 0 0,0
16.01.2018 23:00:00 1,5 -1,7 -0,3 0,1 1,2 5,1 17 9 40 22 WZW 993,8 46 0 0,0
16.01.2018 22:00:00 1,7 -1,4 0,0 0,1 1,2 5,1 22 12 38 21 WZW 993,6 46 0 0,0
16.01.2018 21:00:00 1,9 -1,1 0,3 0,1 1,2 5,1 27 15 46 25 W 993,4 25 0 0,0

tt = temperatuur
td = dauwpunt
tt 5cm = temperatuur 5cm
tt -5cm = temperatuur -5cm
tt -20cm = temperatuur -20cm
tt -100cm = temperatuur -100cm
ff = windsnelheid
fx = windstoten
dd = windrichting
ppp = luchtdruk
vv = zicht
sd = Zonneschijnduur
rr = neerslag

Weerstations in de omgeving